星链-11142 [DTC] (STARLINK-11142 [DTC] )

导读 | 星芒AI

STARLINK-11142 [DTC] 是SpaceX星链(Starlink)卫星互联网项目中的一颗低轨通信卫星。该卫星属于DTC(Direct to Consumer)系列,旨在为全球用户提供高速互联网接入服务。它运行在约550公里高度的近地轨道,具备高带宽和低延迟特性。该系列卫星采用可重复使用火箭发射,有助于降低部署成本。STARLINK-11142 与其他星链卫星协同工作,构建全球覆盖的卫星通信网络,尤其服务于偏远和网络基础设施薄弱地区。

基本信息
目录编号:
59957
目录名称:
STARLINK-11142
国际标识:
2024-107N
轨道中心:
EARTH
卫星名称:
星链-11142 [DTC]
卫星全名:
星链-11142 [DTC] (STARLINK-11142 [DTC] )
卫星状态:
在轨 (已飞行511 天)
发射日期:
2024-06-05 UTC
国别 :
美国 (US)
星等 :
--
轨道信息
数据来源 国际轨道数据
星历时间: 2025-10-28T23:52:27+0800
18小时前
查看轨道信息
半长轴: 6737.843km
偏心率: 0.0000959
轨道倾角: 53.159°
近地点辐角 97.558°
升交点赤经 181.805°
平近点角 262.555°
近地点: 359.061km
远地点: 360.355km
周期: 91.736分钟
每日圈数: 15.697173
详细信息
固有亮度:
5
最大亮度:
0.3
卫星平台:
Starlink v2.0 mini
覆盖范围:
全球
运营商:
太空探索技术公司
运营商所在国:
美国
制造商(研发单位):
太空探索技术公司
制造商所在国:
美国
使用方式:
暂无
卫星简介
星链(Starlink)计划是由太空探索技术公司(SpaceX)提出的一个巨型低轨卫星互联网星座项目,计划在2019年至2024年间在太空搭建由约1.2万颗卫星组成的“星链”网络,其中1584颗将部署在地球上空550千米处的近地轨道,并从2020年开始工作。该卫星仍在工作。
2D轨道图
3D轨道图
轨道高度分析图
轨道倾角分析图
轨道综合分析图
查看轨道综合分析图